Regional Weather Roundup
Issued by NWS Green Bay, WI

Home | Current Version | Previous Version | Text Only | Print | Product List | Glossary On
Versions: 1 2 3 4 5 6 7 8 9 10 11 12 13 14 15 16 17 18 19 20 21 22 23 24 25 26 27 28 29 30 31 32 33 34 35 36 37 38 39 40 41 42 43 44 45 46 47 48 49 50
000
ASUS43 KGRB 241410
RWRGRB

NORTH-CENTRAL AND NORTHEAST WISCONSIN REGIONAL WEATHER ROUNDUP
NATIONAL WEATHER SERVICE GREEN BAY WI
800 AM CST MON NOV 24 2014

WIZ005-009-010>012-018-019-241500-
NORTH CENTRAL WISCONSIN

CITY           SKY/WX    TMP DP  RH WIND       PRES   REMARKS
IRONWOOD       CLOUDY    34  34 100 NW9       29.12S
MANITOWISH WTR CLOUDY    32  32 100 N10G17    29.10R FOG
ARBOR VITAE    MIX PCPN  37  36  96 N13       29.09R
EAGLE RIVER    CLOUDY    34  34 100 N13G18    29.07R FOG
LAND O LAKES   CLOUDY    35  35 100 N10G20    29.08R FOG
RHINELANDER    LGT RAIN  35  34  96 NW9       29.07R
PHILLIPS       LGT SNOW  32  32 100 NW6       29.12S VSB 1
ANTIGO         CLOUDY    35  35 100 NW9       29.05R
TOMAHAWK       RAIN      34  33  96 NW9       29.09S
MERRILL        LGT RAIN  35  35 100 NW8       29.08S
$$

WIZ013-073-241500-
NORTHEAST WISCONSIN

CITY           SKY/WX    TMP DP  RH WIND       PRES   REMARKS
IRON MOUNTAIN  CLOUDY    39  37  92 NW10      29.00R
MARINETTE      CLOUDY    39  37  93 NW6       28.99S
OCONTO         CLOUDY    40  40 100 W5        29.01S
$$

WIZ017-030-035>037-045-241500-
CENTRAL WISCONSIN

CITY           SKY/WX    TMP DP  RH WIND       PRES   REMARKS
MEDFORD        LGT SNOW  32  32  99 NW12      29.11R
WAUSAU         LGT RAIN  37  35  92 NW10      29.07R
MOSINEE        LGT RAIN  36  36 100 NW10      29.09R
MARSHFIELD     LGT RAIN  35  33  92 NW17      29.10S
WISC RAPIDS    LGT RAIN  37  34  89 NW12      29.12R
STEVENS POINT  LGT RAIN  36  35  99 NW6       29.09R
WAUPACA        CLOUDY    44  42  95 W7        29.06S
SHAWANO        CLOUDY    43  41  95 W7        29.04R
CLINTONVILLE   CLOUDY    41  41 100 NW6       29.04S
$$

WIZ038-039-048-051-241500-
FOX VALLEY

CITY           SKY/WX    TMP DP  RH WIND       PRES   REMARKS
NWS GREEN BAY  CLOUDY    41  40  96 W7        29.03R
APPLETON       FOG       41  41 100 W8        29.04R VSB 1
OSHKOSH        CLOUDY    42  41  96 W6        29.05R FOG
FOND DU LAC    LGT RAIN  42  40  92 W8        29.06R FOG
$$

WIZ022-050-052-241500-
EAST CENTRAL WISCONSIN

CITY           SKY/WX    TMP DP  RH WIND       PRES   REMARKS
STURGEON BAY   CLOUDY    41  37  87 W8        29.01S
MANITOWOC      LGT RAIN  42  42 100 W8        29.03R FOG
SHEBOYGAN      LGT RAIN  44  42  93 W12       29.04R
$$

LMZ563-521-522-541>543-241500-
LAKESHORE

STATION/POSITION TIME  TEMP    WIND        PRES    VSBY  WAVE
                       AIR SEA DIR/SP/G                  HT/PER
                 (UTC) (F)     (DEG/KT/KT) (MB)    (MI)  (FT/S)
SHEBOYGAN LKSHOR 1400   44 38  260/  5/  6  983.8R
KEWAUNEE LKSHORE 1400   41     290/  5/  8  982.1R
TWO RIVERS CG    1300   41 37               983.6   3 1/2  1
NORTHPORT PIER   1400   41     290/  7/ 13  982.1S
N MID LAKE BUOY  1400   42 42  280/ 10/ 12  981.1R         1/ 5
SISTER BAY LKSHO 1300          300/  8/  9   N/A
STURGEON BAY CG  1300   41     300/  7      983.3      6   1
CHAMBERS ISLAND  1400   40     220/  2/  6  982.7R
MENOMINEE LKSHOR 1400   41     280/  7/  9  983.1F
$$


USA.gov is the U.S. government's official web portal to all federal, state and local government web resources and services.